Time,TemperatureF,DewpointF,PressureIn,WindDirection,WindDirectionDegrees,WindSpeedMPH,WindSpeedGustMPH,Humidity,HourlyPrecipIn,Conditions,Clouds,dailyrainin,SoftwareType,DateUTC
2013-02-05 00:01:00,23.0,16.0,30.16,ENE,78,1.0,2.0,73,-99.99,,,-99.99,,2013-02-05 07:01:00,
2013-02-05 00:11:00,23.0,16.0,30.16,ENE,78,1.0,2.0,73,-99.99,,,-99.99,,2013-02-05 07:11:00,
2013-02-05 00:22:00,23.0,16.0,30.16,ENE,78,0.0,2.0,74,-99.99,,,-99.99,,2013-02-05 07:22:00,
2013-02-05 00:32:00,22.0,15.0,30.16,ENE,78,1.0,2.0,74,-99.99,,,-99.99,,2013-02-05 07:32:00,
2013-02-05 00:42:00,22.0,15.0,30.16,ENE,78,1.0,2.0,74,-99.99,,,-99.99,,2013-02-05 07:42:00,
2013-02-05 00:52:00,22.0,15.0,30.15,ENE,78,2.0,2.0,74,0.00,,,-99.99,,2013-02-05 07:52:00,
2013-02-05 01:01:00,22.0,15.0,30.15,ENE,78,1.0,2.0,75,0.00,,,-99.99,,2013-02-05 08:01:00,
2013-02-05 01:11:00,22.0,15.0,30.15,ENE,78,1.0,2.0,75,0.00,,,-99.99,,2013-02-05 08:11:00,
2013-02-05 01:21:00,22.0,15.0,30.15,ENE,78,1.0,3.0,75,0.00,,,-99.99,,2013-02-05 08:21:00,
2013-02-05 01:31:00,22.0,15.0,30.15,ENE,78,1.0,3.0,75,0.00,,,-99.99,,2013-02-05 08:31:00,
2013-02-05 01:41:00,22.0,15.0,30.15,ENE,78,1.0,3.0,75,0.00,,,-99.99,,2013-02-05 08:41:00,
2013-02-05 01:52:00,22.0,16.0,30.16,ENE,78,1.0,3.0,76,0.00,,,-99.99,,2013-02-05 08:52:00,
2013-02-05 02:02:00,22.0,16.0,30.16,ENE,78,1.0,2.0,76,0.00,,,-99.99,,2013-02-05 09:02:00,
2013-02-05 02:11:00,22.0,16.0,30.15,ENE,78,0.0,1.0,76,0.00,,,-99.99,,2013-02-05 09:11:00,
2013-02-05 02:21:00,22.0,16.0,30.15,ENE,78,0.0,1.0,76,0.00,,,-99.99,,2013-02-05 09:21:00,
2013-02-05 02:31:00,22.0,15.0,30.16,ENE,78,0.0,1.0,75,0.00,,,-99.99,,2013-02-05 09:31:00,
2013-02-05 02:41:00,22.0,15.0,30.16,ENE,78,0.0,1.0,75,0.00,,,-99.99,,2013-02-05 09:41:00,
2013-02-05 02:52:00,22.0,16.0,30.17,ENE,78,1.0,2.0,76,0.00,,,-99.99,,2013-02-05 09:52:00,
2013-02-05 03:01:00,22.0,16.0,30.16,ENE,78,0.0,2.0,76,0.00,,,-99.99,,2013-02-05 10:01:00,
2013-02-05 03:11:00,22.0,16.0,30.16,ENE,78,0.0,2.0,76,0.00,,,-99.99,,2013-02-05 10:11:00,
2013-02-05 03:21:00,22.0,16.0,30.16,ENE,78,0.0,2.0,76,0.00,,,-99.99,,2013-02-05 10:21:00,
2013-02-05 03:31:00,22.0,16.0,30.14,ENE,78,0.0,2.0,77,0.00,,,-99.99,,2013-02-05 10:31:00,
2013-02-05 03:42:00,22.0,16.0,30.14,ENE,78,0.0,2.0,77,0.00,,,-99.99,,2013-02-05 10:42:00,
2013-02-05 03:52:00,22.0,16.0,30.13,ENE,78,0.0,2.0,76,0.00,,,-99.99,,2013-02-05 10:52:00,
2013-02-05 04:01:00,22.0,16.0,30.13,ENE,78,0.0,2.0,76,0.00,,,-99.99,,2013-02-05 11:01:00,
2013-02-05 04:11:00,22.0,16.0,30.13,ENE,78,0.0,2.0,76,0.00,,,-99.99,,2013-02-05 11:11:00,
2013-02-05 04:21:00,21.0,15.0,30.11,ENE,78,0.0,2.0,76,0.00,,,-99.99,,2013-02-05 11:21:00,
2013-02-05 04:31:00,21.0,15.0,30.12,ENE,78,0.0,2.0,76,0.00,,,-99.99,,2013-02-05 11:31:00,
2013-02-05 04:42:00,21.0,15.0,30.12,ENE,78,0.0,2.0,76,0.00,,,-99.99,,2013-02-05 11:42:00,
2013-02-05 04:52:00,21.0,15.0,30.12,ENE,78,1.0,2.0,76,0.00,,,-99.99,,2013-02-05 11:52:00,
2013-02-05 05:01:00,21.0,15.0,30.12,ENE,78,0.0,2.0,77,0.00,,,-99.99,,2013-02-05 12:01:00,
2013-02-05 05:12:00,21.0,15.0,30.12,ENE,78,0.0,2.0,77,0.00,,,-99.99,,2013-02-05 12:12:00,
2013-02-05 05:21:00,21.0,15.0,30.11,ENE,78,1.0,2.0,77,0.00,,,-99.99,,2013-02-05 12:21:00,
2013-02-05 05:31:00,21.0,15.0,30.10,ENE,78,1.0,2.0,76,0.00,,,-99.99,,2013-02-05 12:31:00,
2013-02-05 05:41:00,21.0,15.0,30.10,ENE,78,1.0,2.0,76,0.00,,,-99.99,,2013-02-05 12:41:00,
2013-02-05 05:52:00,21.0,14.0,30.09,ENE,78,0.0,2.0,74,0.00,,,-99.99,,2013-02-05 12:52:00,
2013-02-05 06:01:00,21.0,14.0,30.08,ENE,78,1.0,1.0,74,0.00,,,-99.99,,2013-02-05 13:01:00,
2013-02-05 06:11:00,21.0,14.0,30.08,ENE,78,1.0,1.0,74,0.00,,,-99.99,,2013-02-05 13:11:00,
2013-02-05 06:21:00,22.0,15.0,30.08,ENE,78,1.0,2.0,74,0.00,,,-99.99,,2013-02-05 13:21:00,
2013-02-05 06:31:00,22.0,15.0,30.10,ENE,78,0.0,2.0,74,0.00,,,-99.99,,2013-02-05 13:31:00,
2013-02-05 06:41:00,22.0,15.0,30.10,ENE,78,0.0,2.0,74,0.00,,,-99.99,,2013-02-05 13:41:00,
2013-02-05 06:52:00,22.0,15.0,30.10,ENE,78,1.0,2.0,75,0.00,,,-99.99,,2013-02-05 13:52:00,
2013-02-05 07:01:00,21.0,14.0,30.10,ENE,78,2.0,2.0,75,0.00,,,-99.99,,2013-02-05 14:01:00,
2013-02-05 07:12:00,21.0,14.0,30.10,ENE,78,2.0,2.0,75,0.00,,,-99.99,,2013-02-05 14:12:00,
2013-02-05 07:21:00,21.0,15.0,30.10,ENE,78,1.0,2.0,76,0.00,,,-99.99,,2013-02-05 14:21:00,
2013-02-05 07:31:00,22.0,16.0,30.11,ENE,78,0.0,3.0,77,0.00,,,-99.99,,2013-02-05 14:31:00,
2013-02-05 07:41:00,22.0,16.0,30.11,ENE,78,0.0,3.0,77,0.00,,,-99.99,,2013-02-05 14:41:00,
2013-02-05 07:52:00,22.0,16.0,30.11,East,82,0.0,1.0,77,0.00,,,-99.99,,2013-02-05 14:52:00,
2013-02-05 08:01:00,23.0,17.0,30.10,East,83,0.0,2.0,76,0.00,,,-99.99,,2013-02-05 15:01:00,
2013-02-05 08:11:00,23.0,17.0,30.10,East,83,0.0,2.0,76,0.00,,,-99.99,,2013-02-05 15:11:00,
2013-02-05 08:21:00,24.0,17.0,30.10,East,82,0.0,1.0,75,0.00,,,-99.99,,2013-02-05 15:21:00,
2013-02-05 08:32:00,24.0,17.0,30.10,East,82,0.0,1.0,75,0.00,,,-99.99,,2013-02-05 15:32:00,
2013-02-05 08:41:00,24.0,17.0,30.10,East,82,0.0,1.0,75,0.00,,,-99.99,,2013-02-05 15:41:00,
2013-02-05 08:52:00,25.0,17.0,30.10,East,83,0.0,0.0,71,-99.99,,,-99.99,,2013-02-05 15:52:00,
2013-02-05 09:01:00,26.0,17.0,30.10,East,83,0.0,0.0,69,-99.99,,,-99.99,,2013-02-05 16:01:00,
2013-02-05 09:11:00,26.0,17.0,30.10,East,83,0.0,0.0,69,-99.99,,,-99.99,,2013-02-05 16:11:00,
2013-02-05 09:22:00,26.0,17.0,30.10,East,83,0.0,0.0,69,-99.99,,,-99.99,,2013-02-05 16:22:00,
2013-02-05 09:32:00,26.0,17.0,30.10,East,83,0.0,0.0,69,-99.99,,,-99.99,,2013-02-05 16:32:00,
2013-02-05 09:41:00,26.0,17.0,30.10,East,83,0.0,0.0,69,-99.99,,,-99.99,,2013-02-05 16:41:00,
2013-02-05 09:52:00,30.0,19.0,30.10,North,353,0.0,1.0,63,0.00,,,-99.99,,2013-02-05 16:52:00,
2013-02-05 10:01:00,30.0,19.0,30.10,North,353,0.0,1.0,63,0.00,,,-99.99,,2013-02-05 17:01:00,
2013-02-05 10:11:00,30.0,19.0,30.10,North,353,0.0,1.0,63,0.00,,,-99.99,,2013-02-05 17:11:00,
2013-02-05 10:21:00,30.0,19.0,30.10,North,353,0.0,0.0,62,0.00,,,-99.99,,2013-02-05 17:21:00,
2013-02-05 10:32:00,31.0,19.0,30.10,NNW,333,0.0,1.0,60,0.00,,,0.00,,2013-02-05 17:32:00,
2013-02-05 10:41:00,31.0,19.0,30.10,NNW,333,0.0,1.0,60,0.00,,,0.00,,2013-02-05 17:41:00,
2013-02-05 10:52:00,35.0,19.0,30.11,NNW,333,0.0,1.0,52,0.00,,,0.00,,2013-02-05 17:52:00,
2013-02-05 11:01:00,35.0,20.0,30.11,NNW,332,0.0,2.0,55,0.00,,,0.00,,2013-02-05 18:01:00,
2013-02-05 11:11:00,35.0,20.0,30.11,NNW,332,0.0,2.0,55,0.00,,,0.00,,2013-02-05 18:11:00,
2013-02-05 11:21:00,36.0,20.0,30.11,NNW,332,0.0,1.0,52,0.00,,,0.00,,2013-02-05 18:21:00,
2013-02-05 11:31:00,38.0,22.0,30.08,NNW,332,0.0,1.0,51,0.00,,,0.00,,2013-02-05 18:31:00,
2013-02-05 11:42:00,38.0,22.0,30.08,NNW,332,0.0,1.0,51,0.00,,,0.00,,2013-02-05 18:42:00,
2013-02-05 11:52:00,39.0,23.0,30.08,NNW,329,0.0,1.0,53,0.00,,,0.00,,2013-02-05 18:52:00,
2013-02-05 12:01:00,39.0,23.0,30.08,NNW,329,0.0,1.0,53,0.00,,,0.00,,2013-02-05 19:01:00,
2013-02-05 12:11:00,39.0,23.0,30.08,NNW,329,0.0,1.0,53,0.00,,,0.00,,2013-02-05 19:11:00,
2013-02-05 12:21:00,38.0,22.0,30.07,NNW,329,0.0,2.0,52,0.00,,,0.00,,2013-02-05 19:21:00,
2013-02-05 12:31:00,38.0,22.0,30.07,NNW,329,0.0,2.0,52,0.00,,,0.00,,2013-02-05 19:31:00,
2013-02-05 12:42:00,38.0,22.0,30.07,NNW,329,0.0,2.0,52,0.00,,,0.00,,2013-02-05 19:42:00,
2013-02-05 12:52:00,38.0,22.0,30.07,NNW,329,0.0,2.0,52,0.00,,,0.00,,2013-02-05 19:52:00,
2013-02-05 13:01:00,41.0,25.0,30.04,NNW,328,0.0,3.0,52,0.00,,,0.00,,2013-02-05 20:01:00,
2013-02-05 13:11:00,41.0,25.0,30.04,NNW,328,0.0,3.0,52,0.00,,,0.00,,2013-02-05 20:11:00,
2013-02-05 13:21:00,41.0,21.0,30.03,NNW,328,0.0,1.0,44,0.00,,,0.00,,2013-02-05 20:21:00,
2013-02-05 13:31:00,41.0,21.0,30.02,NNW,328,0.0,1.0,44,0.00,,,0.00,,2013-02-05 20:31:00,
2013-02-05 13:41:00,41.0,21.0,30.02,NNW,328,0.0,1.0,44,0.00,,,0.00,,2013-02-05 20:41:00,
2013-02-05 13:52:00,42.0,22.0,30.02,NNW,328,0.0,1.0,44,0.00,,,0.00,,2013-02-05 20:52:00,
2013-02-05 14:01:00,42.0,21.0,30.01,NNW,328,0.0,1.0,43,0.00,,,0.00,,2013-02-05 21:01:00,
2013-02-05 14:11:00,42.0,21.0,30.01,NNW,328,0.0,1.0,43,0.00,,,0.00,,2013-02-05 21:11:00,
2013-02-05 14:21:00,43.0,23.0,30.01,NNW,328,0.0,1.0,45,0.00,,,0.00,,2013-02-05 21:21:00,
2013-02-05 14:31:00,43.0,22.0,30.00,NNW,328,0.0,1.0,42,0.00,,,0.00,,2013-02-05 21:31:00,
2013-02-05 14:41:00,43.0,22.0,30.00,NNW,328,0.0,1.0,42,0.00,,,0.00,,2013-02-05 21:41:00,
2013-02-05 14:52:00,43.0,23.0,30.00,NNW,328,0.0,3.0,44,0.00,,,0.00,,2013-02-05 21:52:00,
2013-02-05 15:01:00,43.0,23.0,29.99,NNW,328,0.0,1.0,45,0.00,,,0.00,,2013-02-05 22:01:00,
2013-02-05 15:11:00,43.0,23.0,29.99,NNW,328,0.0,1.0,45,0.00,,,0.00,,2013-02-05 22:11:00,
2013-02-05 15:21:00,44.0,23.0,29.99,NNW,328,0.0,1.0,44,0.00,,,0.00,,2013-02-05 22:21:00,
2013-02-05 15:31:00,44.0,23.0,29.98,NNW,328,0.0,1.0,44,0.00,,,0.00,,2013-02-05 22:31:00,
2013-02-05 15:41:00,44.0,23.0,29.98,NNW,328,0.0,1.0,44,0.00,,,0.00,,2013-02-05 22:41:00,
2013-02-05 15:52:00,44.0,25.0,29.97,NNW,328,0.0,0.0,46,0.00,,,0.00,,2013-02-05 22:52:00,
2013-02-05 16:01:00,43.0,23.0,29.97,NNW,328,0.0,2.0,45,0.00,,,0.00,,2013-02-05 23:01:00,
2013-02-05 16:11:00,43.0,23.0,29.97,NNW,328,0.0,2.0,45,0.00,,,0.00,,2013-02-05 23:11:00,
2013-02-05 16:21:00,43.0,24.0,29.97,NNW,328,0.0,2.0,47,0.00,,,0.00,,2013-02-05 23:21:00,
2013-02-05 16:31:00,42.0,23.0,29.97,North,357,0.0,3.0,46,0.00,,,0.00,,2013-02-05 23:31:00,
2013-02-05 16:41:00,42.0,23.0,29.97,North,357,0.0,3.0,46,0.00,,,0.00,,2013-02-05 23:41:00,
2013-02-05 16:52:00,41.0,23.0,29.96,East,89,0.0,4.0,48,0.00,,,0.00,,2013-02-05 23:52:00,
2013-02-05 17:01:00,41.0,23.0,29.96,East,85,1.0,4.0,48,0.00,,,0.00,,2013-02-06 00:01:00,
2013-02-05 17:11:00,41.0,23.0,29.96,East,85,1.0,4.0,48,0.00,,,0.00,,2013-02-06 00:11:00,
2013-02-05 17:21:00,40.0,24.0,29.96,East,87,0.0,3.0,52,0.00,,,0.00,,2013-02-06 00:21:00,
2013-02-05 17:31:00,39.0,23.0,29.96,East,90,0.0,3.0,53,0.00,,,0.00,,2013-02-06 00:31:00,
2013-02-05 17:41:00,39.0,23.0,29.96,East,90,0.0,3.0,53,0.00,,,0.00,,2013-02-06 00:41:00,
2013-02-05 17:52:00,38.0,22.0,29.97,East,91,0.0,3.0,53,0.00,,,0.00,,2013-02-06 00:52:00,
2013-02-05 18:01:00,38.0,24.0,29.97,East,92,0.0,2.0,57,0.00,,,0.00,,2013-02-06 01:01:00,
2013-02-05 18:11:00,38.0,24.0,29.97,East,92,0.0,2.0,57,0.00,,,0.00,,2013-02-06 01:11:00,
2013-02-05 18:21:00,38.0,24.0,29.97,East,92,0.0,2.0,57,0.00,,,0.00,,2013-02-06 01:21:00,
2013-02-05 18:31:00,36.0,25.0,29.96,East,92,0.0,2.0,63,0.00,,,0.00,,2013-02-06 01:31:00,
2013-02-05 18:41:00,36.0,25.0,29.96,East,92,0.0,2.0,63,0.00,,,0.00,,2013-02-06 01:41:00,
2013-02-05 18:52:00,35.0,25.0,29.96,East,91,0.0,0.0,67,0.00,,,0.00,,2013-02-06 01:52:00,
2013-02-05 19:01:00,36.0,25.0,29.96,East,92,0.0,2.0,64,0.00,,,0.00,,2013-02-06 02:01:00,
2013-02-05 19:11:00,36.0,25.0,29.96,East,92,0.0,2.0,64,0.00,,,0.00,,2013-02-06 02:11:00,
2013-02-05 19:21:00,35.0,25.0,29.96,East,92,0.0,2.0,66,0.00,,,0.00,,2013-02-06 02:21:00,
2013-02-05 19:31:00,35.0,25.0,29.96,East,92,0.0,2.0,66,0.00,,,0.00,,2013-02-06 02:31:00,
2013-02-05 19:41:00,35.0,25.0,29.96,East,92,0.0,2.0,66,0.00,,,0.00,,2013-02-06 02:41:00,
2013-02-05 19:52:00,34.0,25.0,29.97,East,92,1.0,2.0,69,0.00,,,0.00,,2013-02-06 02:52:00,
2013-02-05 20:02:00,34.0,25.0,29.96,East,92,0.0,1.0,68,0.00,,,0.00,,2013-02-06 03:02:00,
2013-02-05 20:12:00,34.0,25.0,29.96,East,92,0.0,1.0,68,0.00,,,0.00,,2013-02-06 03:12:00,
2013-02-05 20:21:00,33.0,24.0,29.96,East,92,0.0,0.0,68,0.00,,,0.00,,2013-02-06 03:21:00,
2013-02-05 20:31:00,33.0,24.0,29.97,East,92,0.0,2.0,69,0.00,,,0.00,,2013-02-06 03:31:00,
2013-02-05 20:42:00,33.0,24.0,29.97,East,92,0.0,2.0,69,0.00,,,0.00,,2013-02-06 03:42:00,
2013-02-05 20:52:00,32.0,23.0,29.94,East,91,0.0,2.0,69,0.00,,,0.00,,2013-02-06 03:52:00,
2013-02-05 21:01:00,32.0,23.0,29.94,East,92,0.0,2.0,69,0.00,,,0.00,,2013-02-06 04:01:00,
2013-02-05 21:11:00,32.0,23.0,29.94,East,92,0.0,2.0,69,0.00,,,0.00,,2013-02-06 04:11:00,
2013-02-05 21:21:00,31.0,22.0,29.95,East,92,0.0,1.0,70,0.00,,,0.00,,2013-02-06 04:21:00,
2013-02-05 21:31:00,31.0,23.0,29.95,East,92,0.0,1.0,71,0.00,,,0.00,,2013-02-06 04:31:00,
2013-02-05 21:41:00,31.0,23.0,29.95,East,92,0.0,1.0,71,0.00,,,0.00,,2013-02-06 04:41:00,
2013-02-05 21:52:00,31.0,22.0,29.94,East,92,0.0,1.0,70,0.00,,,0.00,,2013-02-06 04:52:00,
2013-02-05 22:01:00,32.0,23.0,29.94,East,92,0.0,1.0,69,0.00,,,0.00,,2013-02-06 05:01:00,
2013-02-05 22:11:00,32.0,23.0,29.94,East,92,0.0,1.0,69,0.00,,,0.00,,2013-02-06 05:11:00,
2013-02-05 22:22:00,32.0,23.0,29.94,East,92,0.0,1.0,70,0.00,,,0.00,,2013-02-06 05:22:00,
2013-02-05 22:31:00,32.0,23.0,29.94,East,92,0.0,1.0,70,0.00,,,0.00,,2013-02-06 05:31:00,
2013-02-05 22:41:00,32.0,23.0,29.94,East,92,0.0,1.0,70,0.00,,,0.00,,2013-02-06 05:41:00,
2013-02-05 22:53:00,33.0,24.0,29.94,East,92,0.0,2.0,68,0.00,,,0.00,,2013-02-06 05:53:00,
2013-02-05 23:01:00,33.0,24.0,29.94,East,92,0.0,2.0,68,0.00,,,0.00,,2013-02-06 06:01:00,
2013-02-05 23:11:00,33.0,24.0,29.94,East,92,0.0,2.0,68,0.00,,,0.00,,2013-02-06 06:11:00,
2013-02-05 23:21:00,32.0,23.0,29.92,East,91,0.0,0.0,70,0.00,,,0.00,,2013-02-06 06:21:00,
2013-02-05 23:31:00,32.0,22.0,29.93,East,91,0.0,2.0,67,0.00,,,0.00,,2013-02-06 06:31:00,
2013-02-05 23:42:00,32.0,22.0,29.93,East,91,0.0,2.0,67,0.00,,,0.00,,2013-02-06 06:42:00,
2013-02-05 23:52:00,32.0,23.0,29.93,East,92,0.0,2.0,68,0.00,,,0.00,,2013-02-06 06:52:00,